Wetbulb
47.04 49.99 55.45 58.61 59.69 59.34 59.61 59.67 59.66 59.69 58.92 59.21 59.02 58.55 57.54 57.66 57.92 57.41 57.23 57.45 56.47 56.17 56.14 54.84 53.88 53.73 52.80 51.69 51.07 49.82 48.97 48.40 45.95 48.25 49.79 42.65 37.60 37.69 37.79 37.68 38.52 38.28 39.89
44.96 49.82 54.80 53.61 56.54 57.93 58.64 58.83 59.36 59.37 59.81 59.46 59.45 58.74 58.47 57.70 57.72 57.66 57.37 57.53 57.11 56.65 56.55 55.87 54.72 54.31 53.47 53.51 51.95 50.43 49.39 49.73 48.05 46.75 48.75 43.32 39.18 37.67 38.67 36.39 36.87 37.39 37.79
41.90 43.27 44.36 45.72 46.14 46.91 47.84 47.85 48.86 50.06 49.71 51.60 53.21 57.19 57.45 57.45 57.60 57.38 57.54 57.41 57.52 57.50 57.64 57.15 56.12 55.22 53.25 53.47 52.81 51.73 50.75 49.80 49.65 47.97 47.63 49.18 41.57 36.32 36.48 34.83 35.17 34.47 36.12
38.71 39.79 39.63 40.10 41.24 42.65 43.93 45.02 45.42 46.71 47.09 47.55 46.93 47.20 44.76 44.04 43.96 44.90 46.55 47.23 47.79 49.80 51.98 54.62 56.36 55.80 54.66 53.77 52.88 51.89 51.27 50.71 48.81 47.58 46.95 46.62 35.64 33.42 35.20 34.16 31.55 32.98 33.64
37.14 36.98 38.10 38.36 38.48 38.90 39.37 40.27 41.36 41.86 42.21 42.79 43.45 44.04 42.66 41.25 40.19 40.01 40.74 43.97 44.50 45.20 45.58 45.91 45.87 40.76 38.93 42.25 45.63 47.45 49.16 49.40 48.10 46.22 45.07 43.94 33.35 31.64 33.79 33.67 33.89 31.51 31.71
34.97 35.18 34.97 35.82 35.75 35.93 36.83 37.14 37.71 38.03 38.43 38.84 38.75 39.54 39.14 38.66 38.63 38.59 38.33 40.23 40.72 40.59 40.34 40.70 41.02 37.75 40.11 39.69 40.23 41.00 42.74 42.44 43.35 44.67 45.13 43.79 40.29 35.40 33.80 33.05 32.90 30.26 28.07
31.46 32.01 32.67 33.30 33.40 33.87 34.55 34.87 34.67 34.76 35.70 35.61 35.57 36.17 36.26 36.21 37.30 37.28 36.85 37.14 37.48 37.00 37.14 36.89 36.23 36.62 35.57 36.57 37.71 38.58 38.28 39.36 41.68 42.36 41.38 41.86 38.39 36.15 34.41 32.92 33.14 33.56 32.98
30.15 30.33 31.16 31.90 31.80 32.29 32.59 32.65 32.99 33.05 32.65 32.65 32.72 32.90 33.42 33.62 35.25 35.69 35.63 35.02 34.97 34.76 34.90 34.99 34.69 35.00 35.37 34.76 35.29 35.21 35.55 35.76 36.27 37.89 38.70 40.14 41.03 37.83 36.39 35.84 34.51 32.61 29.05
28.64 29.12 29.91 31.07 31.12 31.32 30.96 30.98 30.53 30.42 29.56 30.22 30.56 30.46 30.25 30.68 34.21 35.76 35.35 33.45 33.13 33.47 33.97 34.22 34.37 34.22 35.86 37.22 34.87 33.75 34.07 34.63 36.28 38.12 38.80 39.78 40.62 40.55 38.00 34.44 30.69 30.17 24.23
27.39 28.45 29.41 30.58 30.88 30.33 30.21 29.97 29.29 29.24 29.29 29.17 29.06 28.97 29.73 29.74 32.45 34.75 35.52 33.86 33.35 33.30 34.14 33.96 33.96 35.60 36.47 37.27 34.67 33.59 32.92 33.86 33.43 33.91 33.86 35.50 38.67 38.22 37.74 36.31 32.54 31.81 24.08
26.39 27.54 28.03 29.16 29.85 29.89 29.49 29.41 28.64 28.28 27.98 27.28 27.18 27.39 27.85 28.59 29.63 32.87 34.49 32.96 33.79 33.09 32.98 32.90 33.43 35.60 36.58 37.12 37.28 33.98 33.73 35.21 34.13 32.59 32.14 32.19 32.51 32.92 35.35 34.34 33.85 34.54 28.53
24.00 25.30 26.22 27.39 28.99 29.66 28.74 28.09 27.53 26.70 25.58 25.11 25.14 25.20 26.48 27.32 29.50 30.86 32.59 32.68 32.80 31.37 31.19 31.62 32.80 35.26 35.61 35.90 35.00 37.07 37.40 34.64 31.61 30.48 29.96 29.73 29.28 29.56 30.62 31.59 31.82 31.06 31.03
19.92 21.60 25.27 24.97 27.17 28.00 26.59 25.99 25.62 25.75 24.93 23.98 24.25 23.72 24.10 26.30 27.49 29.73 30.67 30.83 30.86 31.25 31.76 32.46 33.79 33.89 33.84 32.84 33.71 34.13 31.75 31.39 30.02 28.87 27.40 26.21 25.63 26.44 26.95 26.11 26.42 27.09 28.62
14.67 24.05 26.93 27.02 23.89 25.13 27.92 26.52 25.48 25.21 24.89 24.11 23.59 22.93 23.43 24.71 25.54 27.18 28.15 27.50 27.92 28.39 29.06 30.14 30.91 31.19 30.58 29.48 27.33 28.66 29.82 28.15 28.82 26.83 24.20 22.98 25.12 26.09 25.52 26.96 24.65 24.13 22.48
23.14 24.83 25.71 26.30 26.15 21.28 23.19 26.09 26.06 26.22 26.39 23.69 23.69 23.83 22.61 22.62 24.73 27.55 27.16 25.25 24.79 26.16 19.81 19.93 20.21 23.12 25.62 26.12 25.37 22.60 22.70 22.79 24.91 24.18 23.35 22.16 23.36 24.31 23.68 25.14 23.84 22.87 20.55
23.22 24.85 24.92 25.29 24.84 24.13 22.11 18.81 24.82 27.05 26.47 27.31 26.49 26.06 24.79 26.75 27.22 27.04 26.50 26.09 25.46 24.40 13.52 12.99 14.13 16.04 19.06 21.39 24.36 23.53 19.01 19.59 20.48 23.24 22.00 23.52 22.65 23.16 22.69 22.72 22.78 21.14 18.83
22.45 24.45 24.39 24.70 24.26 23.36 22.15 13.58 10.63 15.40 22.58 22.83 24.99 23.97 25.21 25.21 25.34 24.84 24.50 22.68 22.50 16.81 10.49 9.79 10.23 11.85 13.97 16.28 18.93 21.17 21.89 23.13 21.05 23.40 23.32 22.92 23.58 23.95 22.52 20.91 20.52 19.53 18.16
19.64 23.50 24.11 23.79 23.45 22.61 20.25 6.33 3.02 2.90 2.35 4.22 13.81 21.00 21.68 23.10 22.82 22.28 20.61 16.09 10.29 11.06 5.77 6.57 7.49 8.85 11.47 13.89 15.48 17.59 19.48 20.55 20.68 22.54 22.61 23.53 24.43 23.81 22.05 20.44 19.82 18.28 17.62
10.77 20.27 23.60 21.75 22.81 22.30 20.52 6.33 0.62 -1.10 -2.36 -3.15 1.10 14.13 10.46 18.19 18.69 17.65 15.40 2.67 -0.90 4.60 5.82 6.31 7.53 8.03 9.02 11.82 14.38 15.51 16.18 17.77 18.19 21.39 22.39 22.89 22.69 22.31 19.96 19.41 18.70 18.53 17.88
21.66 19.05 21.89 9.01 15.43 20.73 15.76 4.46 1.16 -2.37 -4.32 -5.97 -3.73 1.74 -0.62 1.43 -0.08 1.40 0.17 -0.91 1.41 1.24 3.62 5.05 6.71 7.19 8.11 9.92 12.21 12.94 12.90 14.03 14.95 16.92 19.06 20.12 20.76 20.26 19.03 18.66 18.23 16.38 14.57
22.82 21.17 20.36 7.34 3.02 -1.33 0.21 3.72 -0.06 -4.52 -5.58 -6.70 -5.58 -0.84 16.98 -7.37 -8.82 -8.97 -8.48 -2.31 -1.74 0.91 2.20 3.37 5.17 6.05 7.22 7.91 9.32 11.19 10.33 12.07 13.62 13.49 14.80 16.77 18.32 17.27 17.59 16.64 15.43 14.39 13.28
21.97 21.28 14.39 18.66 3.62 -1.14 -1.64 -4.20 -3.04 -3.96 -6.39 -6.26 -5.63 -5.18 13.34 -8.23 -9.56 -8.93 -8.68 -8.48 -7.61 -5.41 -2.09 -2.04 2.47 5.77 7.07 6.97 7.17 7.23 7.86 9.33 12.40 13.19 13.11 13.18 15.07 15.89 16.21 15.33 14.29 13.30 12.54
13.01 4.69 -0.19 -2.75 -1.84 -1.04 -3.69 -6.63 -4.83 -5.81 -5.88 -8.26 -9.13 -7.08 -8.80 -9.96 -10.18 -9.87 -10.71 -11.01 -10.56 -6.89 -3.12 -2.94 -1.71 0.88 3.16 3.87 5.18 3.13 1.48 4.27 8.22 10.04 13.60 13.16 12.46 12.25 12.55 12.34 12.07 11.17 10.52
4.11 3.71 3.87 -1.68 -3.89 -3.91 -3.49 -3.55 -5.52 -3.33 -5.23 -6.37 -8.42 -8.89 -7.61 -8.64 -9.78 -9.44 -10.14 -11.49 -10.08 -9.81 -8.46 -6.34 -3.21 -3.56 -0.35 1.22 1.96 2.00 0.44 0.72 1.08 2.33 6.21 9.73 10.70 10.79 10.08 9.17 9.20 10.08 9.64
3.63 2.58 2.66 4.31 2.36 3.10 0.86 -0.99 -0.57 -1.79 -2.22 -3.09 -4.16 -7.35 -7.68 -8.98 -7.71 -8.68 -10.78 -11.30 -11.47 -11.10 -8.43 -7.46 -6.63 -3.91 -2.06 1.77 2.82 3.66 4.49 4.68 5.89 6.22 5.35 8.14 7.81 7.23 8.48 8.93 7.43 6.35 5.87
3.67 4.29 4.63 0.81 0.73 0.21 2.13 3.52 3.13 1.89 0.84 0.67 -1.09 -2.13 -3.78 -5.48 -5.57 -8.14 -10.10 -11.18 -9.86 -9.93 -9.82 -10.14 -8.79 -4.09 -1.21 0.44 3.17 8.63 8.72 9.73 2.91 4.55 1.16 1.88 5.39 5.14 6.85 6.25 5.06 4.92 4.47
MSLP
1016.07 1014.83 1013.77 1013.42 1013.57 1013.97 1014.35 1014.77 1014.92 1015.27 1015.32 1015.45 1015.63 1015.88 1016.11 1016.15 1016.37 1016.72 1016.79 1016.99 1017.29 1017.34 1017.60 1017.81 1017.84 1017.99 1018.12 1018.34 1018.40 1018.62 1018.75 1018.85 1018.17 1017.82 1017.83 1018.12 1018.67 1018.70 1018.92 1019.39 1019.54 1019.68 1020.00
1016.25 1014.78 1013.36 1013.60 1013.77 1013.89 1014.28 1014.72 1014.86 1014.83 1015.01 1015.07 1015.01 1015.41 1015.62 1015.67 1015.61 1015.75 1015.81 1016.04 1015.97 1016.28 1016.28 1016.40 1016.41 1016.69 1016.54 1016.69 1016.95 1017.05 1017.15 1017.10 1017.03 1016.46 1016.44 1016.87 1017.15 1017.13 1017.15 1017.92 1018.24 1018.75 1019.27
1017.07 1016.06 1015.12 1014.65 1015.09 1015.36 1015.53 1015.78 1015.81 1015.54 1015.49 1015.39 1015.43 1015.24 1015.34 1015.50 1015.51 1015.57 1015.63 1015.45 1015.43 1015.29 1015.24 1015.08 1014.70 1015.12 1015.13 1015.30 1015.20 1014.74 1015.28 1015.45 1015.53 1015.26 1014.88 1015.22 1015.87 1016.32 1017.09 1017.71 1018.20 1018.78 1018.85
1018.19 1017.29 1016.53 1016.29 1016.07 1016.37 1016.59 1016.89 1016.65 1016.62 1016.51 1016.46 1016.88 1016.30 1016.89 1017.03 1017.02 1017.04 1016.78 1016.30 1015.96 1015.70 1015.45 1015.28 1014.68 1014.44 1014.30 1014.33 1014.31 1014.18 1014.01 1014.24 1014.34 1014.16 1014.02 1014.46 1015.38 1016.22 1016.50 1017.34 1018.19 1018.33 1018.95
1019.41 1018.42 1018.18 1017.78 1017.44 1017.65 1017.82 1018.06 1018.14 1017.86 1017.63 1017.62 1017.53 1018.21 1017.43 1017.73 1018.26 1018.00 1017.45 1017.13 1016.88 1016.17 1016.12 1015.74 1015.85 1015.33 1015.51 1014.91 1014.13 1014.17 1013.98 1013.95 1014.19 1014.16 1013.79 1014.22 1014.95 1015.70 1015.79 1016.00 1016.89 1017.64 1018.58
1020.83 1020.10 1019.58 1019.15 1018.75 1018.83 1018.91 1019.29 1019.03 1018.81 1018.88 1019.06 1018.76 1019.22 1019.19 1019.10 1019.06 1017.95 1018.43 1017.92 1017.59 1017.05 1017.10 1016.51 1016.54 1015.67 1015.49 1014.81 1014.69 1014.37 1014.07 1013.36 1013.10 1013.23 1013.43 1013.35 1013.52 1014.03 1014.69 1015.21 1016.05 1017.40 1018.25
1022.43 1021.68 1021.08 1020.74 1020.35 1019.83 1019.89 1020.07 1019.81 1019.78 1020.33 1020.27 1019.87 1020.06 1019.78 1019.88 1019.73 1019.07 1019.35 1018.92 1018.24 1017.82 1017.99 1017.22 1016.68 1016.01 1015.74 1015.14 1014.52 1013.99 1013.66 1013.75 1013.70 1013.24 1012.58 1012.21 1012.23 1012.64 1013.41 1014.33 1014.60 1014.97 1015.31
1023.50 1023.04 1022.50 1021.88 1021.92 1021.41 1020.98 1021.06 1020.85 1021.02 1021.03 1020.83 1020.63 1020.89 1020.58 1020.72 1020.05 1019.54 1019.52 1019.18 1018.96 1018.75 1017.99 1017.54 1016.91 1016.18 1015.88 1015.39 1014.70 1014.19 1013.62 1013.39 1013.25 1013.01 1012.62 1012.06 1011.71 1011.65 1011.80 1012.13 1012.92 1014.53 1015.66
1024.60 1024.37 1023.56 1023.54 1023.03 1022.23 1021.95 1021.95 1021.97 1022.28 1021.87 1021.63 1021.69 1021.70 1021.55 1021.43 1020.98 1020.36 1019.80 1019.51 1019.03 1018.66 1018.21 1017.56 1017.03 1016.64 1016.02 1015.49 1014.80 1014.39 1013.58 1013.00 1012.94 1012.46 1012.04 1011.63 1011.28 1011.04 1011.26 1012.33 1013.27 1014.15 1015.57
1025.55 1025.12 1024.64 1024.25 1023.58 1023.31 1023.06 1022.49 1022.87 1022.69 1022.56 1022.51 1022.49 1022.48 1022.29 1021.90 1021.28 1020.67 1020.00 1019.33 1018.94 1018.31 1017.89 1017.50 1017.10 1016.66 1015.84 1015.32 1014.78 1014.17 1013.51 1013.06 1012.74 1012.27 1011.80 1011.12 1010.66 1010.39 1010.88 1011.15 1012.03 1012.65 1014.33
1026.72 1026.03 1025.54 1025.02 1024.59 1024.26 1023.69 1023.64 1023.63 1023.36 1023.31 1023.19 1023.15 1022.92 1022.50 1022.07 1021.43 1020.97 1020.36 1019.71 1019.24 1018.71 1018.15 1017.60 1016.97 1016.50 1015.79 1014.99 1014.39 1014.04 1013.60 1012.99 1012.72 1012.37 1011.95 1011.42 1010.80 1010.59 1010.97 1011.43 1011.76 1011.80 1013.08
1027.23 1026.74 1026.28 1025.77 1025.26 1024.74 1024.32 1024.19 1024.27 1024.00 1023.62 1023.57 1023.30 1023.00 1022.80 1022.61 1022.25 1021.80 1021.35 1020.85 1020.23 1019.44 1018.72 1018.04 1017.30 1016.67 1015.83 1015.18 1014.54 1013.96 1013.41 1013.22 1013.06 1012.79 1012.42 1012.02 1011.81 1011.51 1011.58 1011.83 1012.10 1012.48 1012.91
1027.83 1027.35 1026.79 1026.33 1025.89 1025.45 1025.24 1025.19 1024.90 1024.67 1024.55 1024.49 1024.27 1024.12 1023.83 1023.42 1022.93 1022.43 1021.75 1021.18 1020.43 1019.58 1019.02 1018.53 1017.62 1016.96 1016.41 1015.71 1015.21 1014.80 1014.25 1013.85 1013.72 1013.52 1013.24 1012.96 1012.95 1012.64 1012.71 1012.81 1013.15 1013.26 1013.92
1028.62 1027.80 1027.19 1026.72 1026.55 1026.23 1025.88 1025.80 1025.74 1025.62 1025.47 1025.44 1025.40 1025.33 1025.03 1024.30 1023.67 1022.83 1022.13 1021.52 1020.79 1020.03 1019.33 1018.64 1017.92 1017.33 1016.99 1016.63 1015.89 1015.40 1015.07 1014.61 1014.23 1014.19 1014.12 1013.90 1013.58 1013.40 1013.50 1013.67 1013.90 1014.29 1015.05
1028.76 1028.23 1027.75 1027.34 1027.05 1026.96 1026.72 1026.50 1026.41 1026.52 1026.38 1026.37 1026.28 1026.05 1025.64 1024.95 1024.41 1023.71 1022.92 1022.22 1021.48 1020.81 1020.12 1019.56 1019.06 1018.53 1017.97 1017.38 1016.80 1016.27 1015.74 1015.44 1015.07 1014.70 1014.83 1014.80 1014.57 1014.44 1014.39 1014.55 1014.74 1014.96 1015.71
1028.95 1028.38 1028.00 1027.64 1027.47 1027.38 1027.50 1027.59 1027.24 1026.92 1027.02 1026.76 1026.77 1026.37 1026.15 1025.59 1024.91 1024.16 1023.57 1023.07 1022.36 1021.71 1021.47 1021.73 1021.19 1020.42 1019.99 1019.29 1018.19 1017.49 1016.80 1016.32 1016.04 1015.40 1015.15 1015.32 1015.42 1015.35 1015.39 1015.53 1015.61 1016.09 1016.71
1029.04 1028.59 1028.37 1028.21 1028.24 1028.33 1028.46 1028.71 1028.69 1028.01 1027.66 1027.59 1027.22 1027.08 1026.45 1025.95 1025.47 1025.08 1024.34 1023.93 1023.44 1022.90 1023.01 1023.06 1022.86 1022.07 1021.19 1020.56 1019.70 1018.65 1017.99 1017.11 1016.38 1016.20 1015.83 1015.89 1016.07 1016.18 1016.34 1016.56 1016.84 1017.24 1017.97
1029.26 1028.76 1028.59 1028.60 1028.70 1028.90 1029.19 1029.79 1030.05 1029.81 1029.48 1029.02 1028.30 1027.39 1026.84 1026.17 1025.83 1025.43 1024.94 1024.56 1024.65 1024.61 1025.39 1025.10 1024.47 1023.60 1022.49 1021.58 1021.05 1019.92 1018.99 1018.31 1017.64 1017.05 1016.78 1016.58 1016.53 1016.76 1017.17 1017.60 1017.95 1018.35 1018.76
1029.17 1028.77 1028.51 1028.73 1028.91 1029.14 1029.42 1030.15 1030.61 1030.67 1030.45 1030.19 1029.27 1027.88 1027.86 1026.86 1026.49 1026.37 1026.47 1026.83 1027.12 1026.89 1026.71 1026.13 1025.40 1024.61 1023.53 1022.75 1021.82 1020.87 1020.46 1019.79 1019.20 1018.05 1017.80 1017.74 1017.61 1017.68 1018.17 1018.73 1019.00 1019.53 1020.00
1028.78 1028.89 1028.89 1029.23 1029.57 1029.51 1029.81 1030.71 1030.88 1031.04 1031.01 1030.89 1030.54 1029.83 1029.38 1028.93 1028.55 1028.45 1028.10 1028.00 1028.06 1027.95 1027.53 1027.04 1026.17 1025.56 1024.43 1023.41 1022.65 1021.89 1021.38 1020.88 1020.51 1020.01 1019.24 1018.51 1018.68 1018.98 1019.22 1019.64 1020.18 1020.53 1021.49
1028.62 1028.85 1029.16 1029.67 1030.09 1030.36 1030.59 1031.22 1031.56 1031.51 1031.37 1031.35 1031.19 1030.24 1029.75 1029.96 1030.11 1029.79 1029.43 1029.18 1029.05 1028.67 1028.11 1027.55 1026.82 1025.88 1024.99 1024.29 1023.63 1022.78 1022.45 1022.06 1021.48 1021.03 1020.85 1020.40 1020.06 1020.19 1020.55 1020.73 1020.95 1021.77 1022.66
1028.72 1028.85 1029.35 1029.27 1029.81 1030.27 1030.55 1030.69 1031.09 1031.79 1031.96 1031.72 1031.26 1030.77 1030.42 1030.35 1030.38 1030.25 1030.02 1029.86 1029.67 1029.33 1028.72 1028.22 1027.27 1026.29 1025.79 1025.52 1024.84 1023.87 1023.57 1023.25 1022.49 1022.06 1021.67 1021.77 1021.51 1021.54 1021.80 1022.07 1022.52 1023.05 1023.51
1028.79 1029.26 1029.63 1029.77 1029.79 1030.08 1030.55 1030.67 1030.99 1031.22 1031.53 1031.45 1031.41 1031.18 1030.89 1030.72 1030.43 1030.21 1030.12 1030.15 1029.55 1029.09 1028.77 1028.41 1027.88 1026.98 1026.43 1025.77 1025.61 1024.83 1024.60 1024.15 1023.60 1023.04 1022.78 1022.47 1022.75 1022.81 1022.94 1023.34 1023.71 1024.07 1024.37
1028.39 1028.89 1029.37 1029.68 1029.97 1030.17 1030.39 1030.75 1030.61 1030.62 1030.74 1030.96 1030.99 1030.92 1030.86 1030.86 1030.61 1030.44 1030.27 1029.98 1029.51 1029.16 1028.73 1028.23 1028.07 1027.83 1027.17 1026.44 1025.75 1025.35 1024.70 1024.38 1024.06 1023.92 1023.59 1023.29 1023.40 1023.49 1023.76 1024.28 1024.78 1025.09 1025.31
1027.89 1028.28 1028.79 1029.17 1029.63 1029.74 1030.03 1030.09 1030.09 1030.08 1030.08 1030.15 1030.28 1030.24 1030.26 1030.29 1030.32 1030.16 1029.75 1029.42 1029.26 1029.10 1028.86 1028.59 1027.98 1027.70 1027.49 1026.99 1026.47 1025.82 1025.27 1024.31 1024.15 1024.38 1024.23 1024.13 1024.21 1024.39 1024.41 1024.63 1025.13 1025.71 1026.18
1027.33 1027.68 1028.04 1028.51 1028.90 1029.15 1029.27 1029.34 1029.32 1029.34 1029.41 1029.03 1029.11 1029.19 1029.11 1029.40 1029.54 1029.75 1029.52 1029.11 1028.83 1028.71 1028.47 1028.31 1027.96 1027.67 1027.62 1027.38 1026.62 1025.93 1025.63 1025.60 1024.94 1024.60 1024.70 1024.91 1024.97 1025.38 1025.49 1025.68 1025.86 1026.29 1026.82
Wind_Speed
12 14 11 10 10 9 8 8 9 8 8 10 11 12 13 14 13 13 15 16 16 16 16 16 18 18 12 12 12 12 13 13 16 12 12 8 10 12 11 13 14 16 14
11 11 4 6 5 1 3 5 6 9 10 11 11 11 12 13 13 14 16 15 16 16 16 17 17 14 18 17 12 16 14 14 14 19 14 8 12 13 14 13 12 11 12
11 10 10 12 11 11 10 10 9 8 12 11 8 6 8 8 10 10 13 13 14 16 17 17 17 17 16 15 15 15 14 12 14 14 14 10 8 3 4 2 6 5 6
11 11 12 12 13 12 12 10 9 10 9 10 10 11 12 13 12 10 9 8 7 7 8 10 12 14 16 16 15 16 15 14 13 13 12 10 2 1 2 5 4 5 9
12 12 12 11 13 13 13 11 10 11 12 10 10 9 10 12 9 11 10 8 9 8 7 7 6 5 7 4 1 4 7 8 9 9 10 7 4 3 9 5 8 6 7
12 12 12 12 12 12 12 11 11 11 12 11 11 9 9 8 15 18 14 7 8 7 9 8 10 8 10 11 12 9 7 4 8 6 9 10 8 6 4 7 7 7 6
12 12 12 12 12 12 11 11 12 13 9 9 11 9 10 10 19 19 14 6 6 6 7 7 8 4 7 8 11 12 10 10 12 8 10 9 5 10 9 10 11 12 8
12 13 11 12 10 10 11 11 11 9 9 10 11 10 10 9 21 21 16 9 7 7 7 8 7 9 8 9 9 10 8 6 5 5 8 10 8 7 14 13 13 7 5
12 11 12 9 8 10 11 10 9 7 8 8 8 9 9 8 19 18 13 5 7 9 7 6 7 8 12 15 9 11 11 8 5 10 13 16 17 14 13 8 8 10 3
11 10 10 9 10 11 9 10 6 6 8 6 8 7 10 9 18 23 19 6 7 7 10 7 8 10 16 16 9 8 10 10 7 8 6 7 9 9 20 14 12 12 6
7 7 7 8 8 7 8 8 7 8 7 8 7 6 8 11 14 25 26 11 9 8 7 8 8 19 19 18 16 6 8 9 8 6 5 4 2 1 7 4 9 9 10
6 6 7 7 6 6 8 9 9 8 9 10 10 9 9 11 18 20 22 21 18 9 9 9 11 21 20 20 13 18 14 7 3 4 3 3 3 3 3 3 4 4 3
5 5 5 5 7 7 8 8 7 9 8 9 9 9 9 8 9 20 20 20 19 10 9 13 17 18 18 13 19 17 9 4 4 3 3 3 3 3 4 6 9 13 12
4 7 7 8 6 7 7 6 8 8 8 8 8 8 8 9 10 10 10 10 14 10 12 9 14 14 15 13 8 9 7 5 4 3 2 2 2 3 4 3 6 8 10
4 5 6 6 6 4 5 6 6 6 8 5 6 6 7 10 12 17 14 10 10 10 7 5 8 10 10 10 9 6 5 5 4 2 3 3 3 4 5 5 5 5 7
4 4 4 4 5 5 5 4 8 7 9 12 13 10 6 14 20 21 19 21 23 17 5 6 8 8 8 10 9 8 5 5 4 3 3 3 3 4 5 6 7 8 9
2 3 3 4 4 3 3 3 4 6 6 6 12 14 13 14 17 20 16 14 20 13 7 8 7 8 7 8 8 8 7 5 4 3 3 4 4 5 6 6 7 8 9
1 1 2 1 1 2 2 2 2 1 2 4 5 10 14 14 18 20 21 11 9 12 5 6 7 7 7 7 8 7 7 7 5 5 4 3 4 5 6 6 6 8 8
3 2 2 1 1 1 1 2 2 2 2 3 4 7 11 14 14 16 17 6 3 6 7 7 7 7 7 6 7 7 7 7 6 4 5 5 5 6 7 7 8 9 10
4 4 3 2 1 2 1 2 1 1 1 2 3 3 4 5 6 7 5 4 5 3 5 6 7 7 6 7 7 6 6 7 7 7 6 6 6 6 7 8 7 9 8
4 4 6 3 2 1 1 0 0 1 0 2 3 4 9 3 2 2 3 4 4 5 5 5 6 6 6 6 6 5 5 5 5 5 5 6 6 7 7 7 9 9 8
5 5 3 5 3 3 2 2 2 1 1 2 3 4 7 2 2 2 3 3 3 3 3 4 4 4 5 6 6 5 5 5 5 5 5 5 6 6 7 8 8 7 7
3 4 3 3 3 4 2 2 2 2 2 3 3 3 2 2 2 2 2 3 2 2 4 4 4 5 5 4 4 3 3 3 4 3 4 5 5 6 5 6 6 6 6
5 5 5 3 3 3 3 3 3 4 3 3 3 3 3 3 3 4 3 3 3 3 2 2 3 5 5 5 4 5 2 3 3 3 3 5 6 6 6 6 6 7 6
5 5 5 5 5 5 4 4 5 5 5 4 4 3 3 3 3 4 3 2 1 2 3 4 2 4 5 9 7 8 7 5 5 5 3 5 6 6 5 6 6 6 6
4 4 4 4 4 4 5 5 6 5 5 5 5 5 5 4 4 3 4 2 1 2 2 2 2 6 8 6 7 6 5 6 5 6 4 4 5 4 4 6 7 5 6
Wind_Direction
314 298 246 233 228 222 215 221 211 223 206 209 212 219 223 227 221 219 224 229 227 228 228 228 229 228 226 223 220 224 229 232 248 252 255 213 199 211 216 213 218 211 207
331 337 41 63 30 10 229 246 249 219 222 222 220 224 227 223 218 223 228 227 232 237 232 232 230 230 233 234 226 224 228 229 237 248 240 218 208 211 215 207 210 209 205
356 17 40 59 59 49 47 38 32 34 44 33 11 274 247 240 240 238 239 237 237 241 244 243 231 230 234 233 228 229 226 232 236 242 249 242 210 170 189 167 195 190 179
9 28 42 46 53 48 43 33 47 43 41 53 34 62 37 39 34 14 358 358 9 11 352 312 273 250 246 247 242 238 237 239 235 238 245 240 164 140 129 179 181 180 178
13 31 33 42 50 50 44 35 31 42 43 42 52 24 61 53 15 20 3 347 350 346 348 339 322 319 313 355 151 282 284 260 255 251 250 242 175 171 199 184 198 164 183
16 24 28 32 46 46 46 34 38 38 43 30 44 38 45 43 13 26 3 345 341 355 337 335 326 331 333 328 319 297 266 239 240 245 256 246 223 200 159 177 164 160 199
11 18 29 28 32 44 41 40 36 36 32 36 41 31 38 35 19 21 355 343 345 345 321 332 321 326 323 326 320 315 311 291 262 271 259 244 218 191 174 177 189 196 205
16 17 18 35 26 40 51 40 40 38 36 32 38 28 30 22 17 12 1 352 343 326 332 325 319 325 319 322 315 310 300 287 273 265 263 273 267 202 191 194 190 161 68
15 15 17 16 31 41 51 52 39 31 35 32 34 31 26 16 11 8 7 348 348 346 330 330 319 313 315 325 321 311 306 305 284 284 276 275 272 223 187 139 157 161 124
357 1 5 9 35 40 38 46 24 30 36 32 32 28 27 12 3 8 6 344 344 344 349 329 306 317 323 324 314 306 313 309 313 315 307 302 281 214 185 185 169 175 133
344 1 10 5 18 23 32 38 25 33 31 33 31 22 19 13 5 9 4 3 354 345 340 337 336 334 336 339 337 307 291 301 304 305 302 305 335 115 187 190 188 176 163
353 11 8 1 13 21 37 37 27 24 28 21 15 14 11 6 5 3 359 2 355 344 342 337 336 341 347 351 353 347 339 341 328 323 327 350 3 34 51 77 133 69 81
357 15 3 1 25 20 41 37 34 29 31 23 19 11 0 360 359 357 358 359 357 349 350 350 352 356 357 0 1 2 359 355 341 334 342 11 359 50 63 75 77 81 77
12 37 40 44 24 26 44 46 42 32 28 23 16 11 358 359 357 351 352 351 350 349 354 2 7 10 11 3 354 358 350 346 353 350 0 0 351 43 57 60 97 98 91
47 48 46 50 45 24 31 28 47 34 34 28 17 10 351 3 360 358 4 1 360 2 343 5 13 11 5 1 352 343 349 352 3 10 18 18 40 60 63 71 70 77 94
53 48 33 38 35 25 22 6 10 29 40 35 31 24 18 14 9 7 11 16 15 16 21 11 6 8 2 349 350 345 339 349 344 7 43 44 48 66 78 68 79 88 97
79 69 52 49 44 40 37 17 5 344 12 12 22 25 19 21 20 18 15 19 25 24 36 14 1 354 351 347 342 348 343 345 345 8 43 63 77 78 74 79 89 97 94
204 189 101 73 68 76 68 50 58 24 307 312 329 19 22 28 29 27 24 25 17 20 15 354 345 342 343 350 339 348 349 347 348 10 30 43 66 79 85 87 87 105 105
166 213 174 121 171 145 106 102 56 33 11 330 327 351 6 19 32 33 36 52 20 9 352 347 343 332 339 335 343 355 350 355 347 12 30 33 44 76 78 78 86 90 93
167 184 214 138 237 179 106 121 85 52 15 340 325 303 341 8 18 6 12 18 17 347 340 336 338 330 343 344 345 353 1 9 1 0 15 54 64 70 88 96 91 92 82
188 172 192 127 160 168 185 170 94 63 338 318 284 302 47 89 10 357 344 6 358 339 336 333 331 340 345 344 335 1 6 3 12 14 13 30 56 73 71 77 89 94 98
198 192 186 198 160 155 176 166 145 142 306 317 302 312 8 45 16 355 352 345 321 309 306 310 322 348 348 336 337 354 359 357 12 16 39 27 51 69 78 83 86 88 97
180 180 187 189 178 156 157 172 169 185 217 250 283 300 321 306 306 313 302 300 316 339 336 343 338 352 342 341 329 358 12 340 331 351 49 67 55 51 61 85 97 99 100
174 182 187 186 172 186 195 204 210 214 208 221 231 247 253 271 273 276 280 309 334 340 322 342 354 349 335 343 341 343 329 354 9 29 55 90 87 85 87 81 75 87 88
180 177 184 190 195 203 205 212 215 216 213 204 222 219 235 242 260 261 267 276 308 357 331 331 340 347 349 349 343 352 345 35 54 19 27 52 81 84 93 98 104 100 101
185 190 192 182 204 208 211 215 224 217 220 212 214 217 204 216 233 256 263 254 263 297 310 295 336 7 346 324 327 344 10 9 27 61 55 72 94 85 92 100 103 102 108